Weather History for KHON - June, 2013

Change the Weather History Date:

Sunday, June 9, 2013

  Actual Average Record
Temperature  
Mean Temperature 60 °F 66 °F  
Max Temperature 68 °F 77 °F 100 °F (1956)
Min Temperature 51 °F 54 °F 34 °F (1989)
Degree Days  
Heating Degree Days 5 2  
Month to date heating degree days 61 27  
Since 1 June heating degree days 61 27  
Since 1 July heating degree days 8203 7648  
Cooling Degree Days 0 3  
Month to date cooling degree days 0 22  
Year to date cooling degree days 38 55  
Since 1 June cooling degree days 0 22  
Growing Degree Days 10 (Base 50)    
Moisture  
Dew Point 57 °F    
Average Humidity 84    
Maximum Humidity 100    
Minimum Humidity 68    
Precipitation  
Precipitation 0.12 in 0.14 in 1.65 in (1974)
Month to date precipitation 1.41 1.26  
Year to date precipitation 12.00 9.24  
Snow  
Snow 0.00 in 0.00 in 0.00 in ()
Month to date snowfall 0.0 0.0  
Since 1 June snowfall 0.0 0.0  
Since 1 July snowfall 60.1 43.9  
Snow Depth 0.00 in    
Sea Level Pressure  
Sea Level Pressure 29.78 in    
Wind  
Wind Speed 10 mph (North)    
Max Wind Speed 21 mph    
Max Gust Speed 25 mph    
Visibility 9 miles    
Events Fog , Rain    
T = Trace of Precipitation, MM = Missing Value Source: NWS Daily Summary

Daily Weather History Graph

Daily Weather History Graph

Search for Another Location

Airport or City:

Trip Planner

Search our weather history database for the weather conditions in past years. The results will help you decide how hot, cold, wet, or windy it might be!

Date:

Astronomy

Jun. 09, 2013 Rise Set
Actual Time 5:48 AM CDT 9:16 PM CDT
Civil Twilight 5:12 AM CDT 9:52 PM CDT
Nautical Twilight 4:24 AM CDT 10:40 PM CDT
Astronomical Twilight 3:23 AM CDT 11:41 PM CDT
Moon 6:48 AM CDT (6/9) 10:00 PM CDT (6/9)
Length of Visible Light 16h 40m
Length of Day
15h 27m
New Moon, 1% of the Moon is Illuminated
Jun 9
New Moon
Jun 16
First Quarter
Jun 23
Full
Jun 29
Last Quarter
Jul 8
New

Hourly Weather History & Observations

Time (CDT) Temp. Dew Point Humidity Pressure Visibility Wind Dir Wind Speed Gust Speed Precip Events Conditions
12:55 AM 57.9 °F 57.0 °F 97% 29.74 in 10.0 mi East 8.1 mph - 0.09 in Rain Light Rain
1:55 AM 57.9 °F 57.0 °F 97% 29.73 in 10.0 mi ENE 6.9 mph - 0.02 in Rain Light Rain
2:55 AM 57.9 °F 57.0 °F 97% 29.72 in 10.0 mi NE 6.9 mph - 0.03 in Rain Light Rain
3:55 AM 57.0 °F 57.0 °F 100% 29.71 in 8.0 mi NNE 8.1 mph - 0.02 in Rain Light Rain
4:55 AM 57.9 °F 57.0 °F 97% 29.71 in 10.0 mi North 11.5 mph - 0.03 in Rain Light Rain
5:20 AM 57.2 °F 57.2 °F 100% 29.71 in 10.0 mi North 11.5 mph - 0.01 in Rain Light Rain
5:27 AM 57.2 °F 57.2 °F 100% 29.72 in 10.0 mi North 10.4 mph - 0.01 in Rain Light Rain
5:33 AM 57.2 °F 57.2 °F 100% 29.72 in 10.0 mi North 10.4 mph - 0.01 in Rain Light Rain
5:55 AM 57.0 °F 57.0 °F 100% 29.72 in 10.0 mi North 11.5 mph - 0.02 in Rain Light Rain
6:05 AM 57.2 °F 57.2 °F 100% 29.72 in 10.0 mi North 12.7 mph - 0.00 in Rain Light Rain
6:19 AM 57.2 °F 57.2 °F 100% 29.73 in 10.0 mi North 13.8 mph - 0.00 in Rain Light Rain
6:55 AM 57.0 °F 57.0 °F 100% 29.74 in 10.0 mi NNW 11.5 mph - 0.00 in   Unknown
7:55 AM 57.9 °F 57.0 °F 97% 29.75 in 10.0 mi North 13.8 mph - N/A   Unknown
8:55 AM 59.0 °F 57.9 °F 96% 29.76 in 10.0 mi NNW 15.0 mph - N/A   Unknown
9:55 AM 61.0 °F 57.9 °F 90% 29.77 in 10.0 mi North 12.7 mph 21.9 mph N/A   Unknown
10:55 AM 61.0 °F 57.9 °F 90% 29.78 in 10.0 mi North 16.1 mph - N/A   Unknown
11:55 AM 61.0 °F 57.9 °F 90% 29.79 in 10.0 mi North 16.1 mph - N/A   Unknown
12:55 PM 63.0 °F 57.9 °F 84% 29.81 in 10.0 mi NNW 19.6 mph 24.2 mph N/A   Unknown
1:55 PM 64.0 °F 57.9 °F 80% 29.81 in 10.0 mi North 13.8 mph 25.3 mph N/A   Unknown
2:55 PM 64.9 °F 59.0 °F 81% 29.82 in 10.0 mi North 13.8 mph - N/A   Unknown
3:55 PM 64.9 °F 59.0 °F 81% 29.83 in 10.0 mi NNW 15.0 mph - N/A   Unknown
4:55 PM 66.0 °F 59.0 °F 78% 29.83 in 10.0 mi NNW 15.0 mph - N/A   Unknown
5:55 PM 66.0 °F 57.9 °F 75% 29.83 in 10.0 mi North 11.5 mph - N/A   Unknown
6:55 PM 68.0 °F 57.0 °F 68% 29.83 in 10.0 mi North 9.2 mph - N/A   Unknown
7:55 PM 66.0 °F 57.9 °F 75% 29.84 in 10.0 mi North 6.9 mph - N/A   Unknown
8:55 PM 63.0 °F 57.0 °F 81% 29.85 in 10.0 mi North 4.6 mph - N/A   Unknown
9:55 PM 55.9 °F 55.0 °F 97% 29.86 in 10.0 mi Calm Calm - N/A   Unknown
10:55 PM 55.0 °F 55.0 °F 100% 29.87 in 4.0 mi Calm Calm - N/A   Mist
11:36 PM 55.4 °F 55.4 °F 100% 29.87 in 1.2 mi Calm Calm - N/A   Mist
11:42 PM 53.6 °F 53.6 °F 100% 29.87 in 0.2 mi Calm Calm - N/A Fog Fog
11:55 PM 53.1 °F 53.1 °F 100% 29.88 in 0.5 mi Calm Calm - N/A Fog Fog